Location: Betpouey
(42.8833°N, 0.0333°E)
Time: 06:20:19
(UTC+00:00)

CSL-04 Debris - Pass Details

Date: 01 December 2020
Orbit: 826 x 849 km, 98.9° (Epoch: 17 January)

Event Time Altitude Azimuth Distance (km) Brightness Sun altitude
Exits shadow 19:09:15 65° 335° (NNW) 930 4.3 -29.1°
Drops below altitude 10° 19:13:56 10° 345° (NNW) 2,480 6.7 -30.0°
Sets 19:16:18 0° 346° (NNW) 3,417 7.5 -30.4°
